sat.trackr.live / text

‹ back to catalog

STARLINK-36185

NORAD 67204 · 2025-304N

PAYLOAD ACTIVE UNKNOWN

§ Identity

Operator
Country
US
Launch date
2025-12-17
Launch site
AFWTR
Launch vehicle
Mass (kg)
RCS (m²)

Purposes: comms

External: N2YO · Heavens-Above · Gunter

§ Orbital elements

Epoch: 2026-09-20T03:25:23.719296Z

Period
96.11 min
Inclination
70.0028°
Eccentricity
0.0002587
Mean motion
14.98334498 rev/d
Perigee alt
570.2 km
Apogee alt
573.8 km
Semi-major
6,950.2 km
B*
2.9627e-4
RAAN
44.1018°
Arg perigee
266.8755°
Mean anomaly
93.2108°
Rev number
4,301

§ Raw data

STARLINK-361851 67204U 25304N   26263.14263564  .00003444  00000+0  29627-3 0  99962 67204  70.0028  44.1018 0002587 266.8755  93.2108 14.98334498 43011

JSON: /api/v1/satellites/67204 · /tle

For live sub-satellite position, see the globe view (requires WebGL).

§ Visibility from observer

Set your observer location to see the next 7 days of passes ≥ 10°. The values pass through the URL so the page stays shareable.

No JS? Fill the form by hand. The geolocation button needs JavaScript.